Location: Lake Zurich
(42.1970°N, 88.0930°W)
Time: 00:30:24
(UTC-05:00)

Daily predictions for brighter satellites

Satellite Brightness Start Highest point End
(mag) Time Altitude Azimuth Time Altitude Azimuth Time Altitude Azimuth
Meteor 2-4 Rocket 4.3 00:03:03 10° NNW 00:08:15 44° W 00:08:24 44° W
Cosmos 2263 4.3 00:09:17 63° W 00:09:42 66° WNW 00:15:20 10° NNE
Cosmos 1818 3.6 00:12:45 75° NNW 00:12:45 75° NNW 00:18:02 10° NNE
H-2A R/B 3.8 00:13:47 10° NNE 00:16:44 38° NE 00:16:44 38° NE
Lacrosse 5 rocket 4.2 00:29:41 10° NW 00:31:44 14° NNW 00:33:47 10° N
Cosmos 1833 4.4 00:26:48 10° NNW 00:31:46 65° WNW 00:31:46 65° WNW
CZ-2C R/B 3.4 00:33:04 10° NNE 00:37:09 42° ENE 00:37:09 42° ENE
Cosmos 2369 Rocket 3.8 00:37:36 22° W 00:39:52 29° NW 00:44:43 10° N
UNK 4.5 00:27:23 10° WSW 00:45:12 79° NNW 00:49:34 10° ENE
GP-B 4.2 00:42:39 10° N 00:45:42 43° N 00:45:42 43° N
Cosmos 1656 Rocket 3.9 00:49:07 63° NE 00:49:07 63° NE 00:53:56 10° NNE
CZ-4B R/B 4.5 00:57:03 13° NNW 00:57:03 13° NNW 00:57:25 10° NNW
Cosmos 2227 Rocket 3.8 00:50:12 10° N 00:55:01 28° NE 00:56:52 23° E
Cosmos 2219 3.3 00:51:13 10° NNW 00:56:13 71° NNW 00:56:13 71° NNW
Cosmos 1066 Rocket 4.4 00:54:27 10° NNW 00:59:04 64° NW 00:59:04 64° NW
NOSS 3-3 (A) 3.9 01:01:38 83° ESE 01:01:38 83° ESE 01:08:15 10° NE
NOSS 3-3 (C) 3.9 01:01:44 82° E 01:01:44 82° E 01:08:21 10° NE
Cosmos 1943 Rocket 3.0 01:03:11 40° WNW 01:03:44 41° WNW 01:09:03 10° NNE
Cosmos 968 Rocket 4.3 00:58:51 10° NNW 01:02:41 43° WNW 01:02:41 43° WNW
Cosmos 2100 Rocket 4.4 01:11:20 49° W 01:11:48 50° WNW 01:18:00 10° N
Cosmos 2297 Rocket 3.8 01:10:55 10° N 01:15:48 29° NE 01:18:02 22° E
Helios 1A Rocket 4.4 01:15:05 10° N 01:17:40 34° NNW 01:17:40 34° NNW
Cosmos 1459 Rocket 4.5 01:19:07 45° W 01:19:23 46° WNW 01:25:12 10° N
Cosmos 2233 Rocket 4.3 01:20:31 53° E 01:20:38 53° E 01:26:35 10° NNE
ATLAS 2AS CENTAUR R/B 3.4 01:14:27 10° NW 01:21:47 44° WSW 01:21:47 44° WSW
Cosmos 1570 Rocket 4.3 01:23:15 66° NNE 01:23:15 66° NNE 01:27:51 10° NNE
Cosmos 2016 Rocket 4.2 01:25:51 57° W 01:25:57 57° W 01:31:57 10° N
USA 234 4.4 01:20:05 10° NE 01:26:04 39° NNW 01:32:00 10° W
Cosmos 2228 4.3 01:31:40 37° NE 01:31:40 37° NE 01:34:27 10° NNE
CZ-2C R/B 3.7 01:47:09 42° NW 01:47:09 42° NW 01:50:40 10° NNW
BREEZE-M DEB (TANK) 4.0 01:46:27 10° WNW 01:50:58 67° SSW 02:10:01 10° SE
BREEZE-M DEB (TANK) 3.3 01:44:08 10° WNW 01:58:03 88° NNE 01:58:47 67° ESE
ATLAS CENTAUR R/B 2.3 02:03:04 53° ENE 02:03:04 53° ENE 02:07:12 10° NE
Cosmos 972 Rocket 4.1 01:59:07 10° NNW 02:03:33 70° NW 02:03:33 70° NW
SeaSat 1 2.5 02:11:46 73° ENE 02:11:53 73° ENE 02:16:49 10° NNW
NOSS 2-1 (D) 4.3 02:14:09 48° NE 02:14:09 48° NE 02:17:28 10° NE
NOSS 2-1 (C) 4.2 02:15:33 49° NE 02:15:33 49° NE 02:18:55 10° NE
Cosmos 1812 Rocket 4.0 02:18:27 63° NNE 02:18:27 63° NNE 02:22:14 10° N
CZ-2C R/B 4.1 02:14:02 10° NNW 02:18:09 24° WNW 02:18:40 23° WNW
Resurs 1-4 Rocket 4.5 02:18:45 10° ENE 02:21:19 14° E 02:23:53 10° ESE
Cosmos 1707 3.8 02:18:01 10° N 02:21:07 43° NE 02:21:07 43° NE
Cosmos 2298 Rocket 4.0 02:17:01 10° NNW 02:22:01 74° WNW 02:22:01 74° WNW
Cosmos 1697 Rocket 3.3 02:21:51 44° ESE 02:22:23 45° ESE 02:27:45 10° NE
BREEZE-M R/B 4.1 02:19:06 10° WNW 02:26:24 85° SW 02:32:32 10° SE
Cosmos 2034 Rocket 4.2 02:25:18 48° SE 02:26:45 61° E 02:32:50 10° NNE
Cosmos 468 Rocket 3.8 02:28:03 89° S 02:28:05 89° ESE 02:33:16 10° NNE
Cosmos 858 Rocket 4.3 02:23:46 10° NNW 02:29:01 84° WSW 02:29:01 84° WSW
NOSS 2-1 (E) 3.9 02:30:15 61° N 02:30:15 61° N 02:34:12 10° NNE
SL-08 R/B 3.5 02:30:09 59° E 02:30:34 62° ENE 02:35:09 10° N
Cosmos 2082 3.8 02:26:02 10° NNW 02:31:07 56° W 02:31:07 56° W
Cosmos 1980 Rocket 3.3 02:31:15 30° SE 02:32:22 33° ESE 02:37:22 10° NE
Cosmos 2227 Rocket 2.6 02:33:53 10° NW 02:38:39 45° W 02:38:39 45° W
Cosmos 1953 4.5 02:41:06 17° ESE 02:42:09 19° E 02:45:04 10° NE
NOSS 3-4 (A) 3.7 02:38:30 10° NW 02:45:31 77° WSW 02:49:38 29° SSE
NOSS 3-4 (C) 3.7 02:38:35 10° NW 02:45:37 78° WSW 02:49:54 28° SSE
Cosmos 2322 Rocket 4.4 02:43:46 12° SE 02:46:33 16° E 02:49:55 10° ENE
PSLV R/B 4.4 02:44:21 10° N 02:48:25 41° WNW 02:48:25 41° WNW
NPP 3.5 02:43:12 10° NNE 02:48:39 88° ESE 02:49:32 64° S
Cosmos 972 4.5 02:45:34 10° NNW 02:50:08 59° W 02:50:08 59° W
SL-16 R/B 3.6 02:45:57 10° SE 02:51:39 41° ENE 02:57:21 10° N
Cosmos 841 Rocket 3.6 02:56:06 55° SSE 02:57:05 70° ESE 03:02:21 10° NNE
Cosmos 1898 Rocket 4.1 02:53:04 10° NW 02:57:32 40° W 02:57:32 40° W
Cosmos 1378 3.6 02:56:01 10° N 02:59:46 56° E 02:59:52 56° E
Cosmos 2297 Rocket 2.5 02:54:39 10° NW 02:59:47 44° W 02:59:47 44° W
Cosmos 1763 Rocket 3.4 02:59:24 62° S 03:00:18 84° ESE 03:05:30 10° NNE
Cosmos 1076 Rocket 3.8 02:58:56 10° N 03:03:14 63° E 03:04:05 50° SE
Cosmos 1125 Rocket 4.3 02:59:15 10° N 03:04:18 49° ENE 03:09:12 11° SE
Cosmos 1937 Rocket 3.7 02:59:33 10° NNW 03:04:29 50° W 03:04:29 50° W
Okean 3 Rocket 3.8 03:00:42 10° NNW 03:04:41 55° WNW 03:04:41 55° WNW
Geosat 4.2 03:00:14 10° NNE 03:05:14 62° ESE 03:06:24 48° SSE
Cosmos 1464 Rocket 4.4 03:07:19 41° WSW 03:08:50 48° WNW 03:14:59 10° N
BREEZE-M DEB (TANK) 4.1 03:07:38 27° WNW 03:09:05 39° NNW 03:12:34 10° NE
CBERS 1 LM4 rocket 4.3 03:05:46 10° NNE 03:10:36 87° ESE 03:11:43 55° S
CZ-3A R/B 3.8 03:07:23 30° SW 03:14:20 79° SE 03:19:16 10° NE
ERS-2 2.0 03:12:32 10° NNE 03:16:18 89° E 03:16:20 88° S
Meteor 2-5 Rocket 4.4 03:11:36 10° NNW 03:17:02 39° W 03:17:49 37° WSW
Cosmos 540 Rocket 4.4 03:16:37 26° SSE 03:18:55 41° ESE 03:23:45 10° NE
Milstar 3 Cent rocket 3.8 03:21:56 18° SSE 03:21:56 18° SSE 03:24:47 10° SE
Cosmos 1092 Rocket 4.0 03:14:45 10° N 03:21:05 84° E 03:25:11 24° S
SL-16 R/B 3.6 03:18:33 17° SSE 03:21:53 31° ESE 03:26:47 10° NE
RESURS DK-1 3.6 03:19:28 10° NNW 03:23:26 41° ENE 03:27:21 10° SE
Cosmos 2360 4.4 03:23:35 34° S 03:25:58 64° ESE 03:31:39 10° NNE
ERS-1 4.4 03:22:06 10° NNE 03:27:11 90° W 03:28:58 41° SSW
ARIANE 5 R/B 2.7 03:22:03 10° NNE 03:27:13 71° ESE 03:29:33 33° S
Cosmos 1656 4.4 03:25:27 32° WSW 03:27:17 42° WNW 03:32:39 10° NNE
Cosmos 2263 Rocket 4.5 03:23:23 10° N 03:27:55 25° NE 03:32:25 10° ESE
Cosmos 1743 Rocket 4.2 03:25:48 10° N 03:30:04 54° E 03:33:03 19° SSE
IRS-1C 4.3 03:26:20 10° N 03:31:34 56° WNW 03:33:20 38° SW
CZ-2D R/B 2.5 03:27:39 10° NNE 03:33:03 61° E 03:36:12 25° S
USA 161 2.6 03:35:06 34° NNW 03:35:06 34° NNW 03:36:51 10° NNW
Cosmos 1766 3.6 03:33:56 46° W 03:34:09 47° W 03:37:58 10° N
SME Rocket 4.4 03:29:37 19° SSE 03:34:11 83° WSW 03:43:33 10° NNW
Cosmos-2242 3.0 03:33:18 43° S 03:34:40 81° E 03:38:58 10° N
Cosmos 1544 4.0 03:38:04 27° SSE 03:39:37 44° E 03:43:06 10° NNE
ATLAS CENTAUR R/B 3.5 03:39:24 17° W 03:41:46 23° NW 03:45:45 10° N
SL-24 R/B 4.2 03:43:41 32° S 03:45:44 63° WSW 03:50:09 10° NNW
Cosmos 332 Rocket 4.0 03:43:36 30° S 03:45:57 68° ESE 03:50:46 10° NNE
Cosmos 1441 Rocket 3.8 03:42:42 10° NNW 03:46:28 40° W 03:46:43 40° WSW
Meteor 1-24 Rocket 4.4 03:41:30 10° NNW 03:46:47 37° W 03:48:40 30° SW
GEOS 3 Rocket 4.2 03:41:50 10° SE 03:46:56 59° NE 03:52:01 10° NNW
Cosmos 1408 Rocket 4.0 03:44:55 10° NNW 03:49:05 42° W 03:50:01 37° SW
SeaSat 1 4.4 03:51:33 13° W 03:51:33 13° W 03:52:36 10° WNW
ADEOS 4.0 03:45:08 10° N 03:50:07 46° WNW 03:52:15 30° WSW
UNKNOWN OBJECT B 3.2 03:47:24 10° NNE 03:51:14 58° E 03:53:13 26° S
Spot 4 Rocket 4.4 03:47:27 10° N 03:52:25 49° WNW 03:54:39 30° SW
Okean O Rocket 3.1 03:48:42 10° NNE 03:52:40 32° E 03:56:38 10° SSE
Lacrosse 5 rocket 4.2 03:50:58 10° NNW 03:53:09 15° NNE 03:55:21 10° ENE
Cosmos 2142 Rocket 4.4 03:51:21 24° SSW 03:55:12 77° W 04:01:22 10° N
Cosmos 2227 4.2 03:49:45 10° NNW 03:55:27 62° WSW 04:01:06 10° S
Cosmos 1766 Rocket 4.1 03:51:29 10° NNW 03:55:36 39° W 03:56:43 33° SW
UNK 3.7 03:52:50 23° S 03:55:42 67° WSW 04:00:24 10° NNW
In-Cosmos 22 4.1 03:52:05 10° NNW 03:57:18 61° W 04:00:51 20° S
Cosmos 1805 3.4 03:58:52 36° SW 04:00:08 55° W 04:04:00 10° N
Cosmos 2279 Rocket 4.2 03:55:03 13° S 04:00:38 74° E 04:06:53 10° N
IRS-1D 3.6 03:56:35 10° N 04:01:29 61° WNW 04:04:12 26° SW
Resurs 1-4 Rocket 2.1 03:56:27 10° N 04:01:44 75° WNW 04:05:02 23° SSW
EO 1 Del DPAF 3.2 03:59:47 24° S 04:01:59 69° WSW 04:05:53 10° NNW
Cosmos 1461 2.8 03:58:08 10° NW 04:02:11 56° WSW 04:06:03 10° SSE
Cosmos 371 Rocket 3.5 04:00:57 21° S 04:04:07 69° ESE 04:08:55 10° NNE
DELTA 2 R/B (2) 4.5 04:05:36 36° SSE 04:05:36 36° SSE 04:07:19 10° ESE
CZ-2D R/B 3.9 04:00:54 10° NNE 04:05:17 66° E 04:08:44 16° S
Cosmos 1697 Rocket 3.9 04:03:35 19° W 04:06:31 29° NW 04:11:25 10° N
CZ-2C R/B 4.4 04:04:44 10° SSE 04:09:17 56° ENE 04:13:47 10° N
CZ-4B R/B 4.5 04:08:43 10° NE 04:12:08 29° E 04:15:23 10° SSE
Cosmos 1758 4.2 04:14:38 25° WSW 04:16:05 33° WNW 04:19:44 10° N
Cosmos 1980 Rocket 3.0 04:13:01 20° WSW 04:16:16 37° WNW 04:21:32 10° N
Cosmos 2360 Rocket 3.6 04:11:51 10° SSE 04:16:50 34° ESE 04:21:51 10° NE
Cosmos 1674 2.5 04:13:54 10° N 04:17:41 82° W 04:21:25 10° S
Cosmos 1437 3.7 04:14:54 10° NNW 04:17:55 31° W 04:18:38 28° WSW
Cosmos 1842 Rocket 3.6 04:15:15 20° SSW 04:18:18 69° W 04:22:47 10° N
Cosmos 1953 3.3 04:16:53 24° WSW 04:18:23 31° WNW 04:22:02 10° NNW
Cosmos 372 Rocket 3.9 04:14:45 10° NNW 04:19:46 59° WSW 04:24:46 10° S
MTI 4.1 04:24:39 18° SSW 04:26:50 47° W 04:30:02 10° NNW
Cosmos 2322 Rocket 2.2 04:25:36 17° SW 04:29:56 70° WNW 04:35:34 10° NNE
Cosmos 2151 3.1 04:25:53 10° N 04:30:13 82° E 04:34:31 10° S
Cosmos 967 Rocket 4.4 04:26:00 10° NW 04:32:20 70° WSW 04:38:34 10° SSE
SL-16 R/B 3.2 04:30:27 13° SSW 04:35:19 33° W 04:40:48 10° NNW
Cosmos 1655 Rocket 4.3 04:30:26 10° NNW 04:36:34 50° W 04:42:40 10° SSW
Meteor 2-20 4.4 04:36:34 10° N 04:42:41 81° W 04:48:46 10° S
Okean-O 4.1 04:39:25 10° NNE 04:43:33 37° E 04:47:40 10° SSE
GPS 2-04 Rocket1 4.4 04:44:14 14° SW 04:45:10 15° SSW 04:47:30 10° SSE
Cosmos 1666 Rocket 4.2 04:49:29 10° N 04:53:49 58° E 04:58:06 10° SSE
DELTA 2 R/B (1) 3.9 04:53:35 11° WSW 04:58:44 54° SSE 05:04:11 10° E
Cosmos 1470 3.9 04:56:47 11° SW 05:00:02 28° WNW 05:03:30 10° NNW
RESURS DK-1 3.9 04:58:27 10° WNW 05:01:08 17° WSW 05:03:50 10° SW
SL-14 R/B 3.3 04:57:38 10° N 05:01:34 88° E 05:05:26 10° S
Cosmos 304 Rocket 4.0 04:59:35 10° SSW 05:04:23 76° ESE 05:09:13 10° NNE
Cosmos 2058 3.0 05:00:36 10° NNW 05:04:47 64° W 05:08:57 10° S
ADEOS II 2.9 05:00:20 10° NNE 05:05:30 54° E 05:10:38 10° S
ARIANE 5 R/B 4.3 05:02:42 10° NNW 05:05:45 16° WNW 05:08:49 10° W
SL-16 R/B 2.9 05:00:32 10° SW 05:05:49 40° WNW 05:11:10 10° N
MOZ.5/SAFIR/RUBIN 5/SL-8 4.2 05:02:12 10° S 05:06:38 41° W 05:11:04 10° NNW
Cosmos 2263 Rocket 2.3 05:06:45 10° NNW 05:12:09 53° WSW 05:17:32 10° S
CZ-2D R/B 3.7 05:08:48 10° NNW 05:12:37 20° WNW 05:16:24 10° WSW
Cosmos 2221 2.8 05:09:21 10° SSW 05:13:30 49° WNW 05:17:42 10° N
Lacrosse 5 3.2 05:10:23 10° NW 05:15:17 45° NE 05:20:09 10° ESE
